OpenBCM V1.13 (Linux)

Packet Radio Mailbox

DB0FHN

[JN59NK Nuernberg]

 Login: GUEST





  
I0OJJ  > KEPS     22.01.26 02:33l 320 Lines 15318 Bytes #999 (0) @ AMSAT
BID : ORB26022.1
Read: GUEST OE5RCO DJ6UX
Subj: 2Line Orbital Elements 26022.AMSAT
Path: DB0FHN<DB0RKB<DK0WUE<PD0LPM<PI8ZTM<CX2SA<EA2RCF<I0OJJ
Sent: 260122/0021z @:I0OJJ.ITA.EU [Rome] obcm1.13-37-gc689
From: I0OJJ @ I0OJJ.ITA.EU (Gustavo)
To:   KEPS @ AMSAT
X-Info: This message was generated automatically


QST de W1STR

AMSAT Orbital Elements for Amateur Satellites in TLE Format
From Orbital Analysis Office
New England Sci-Tech STEM Education Center
Natick MA January 22, 2026
To all radio amateurs


These element sets describe the orbits of various satellites 
in use by the amateur radio community. For details see:
www.amsat.org/keplerian-elements-formats/

A daily update of element sets is available at:
www.amsat.org/tle/daily-bulletin.txt
or without bulletin text:
www.amsat.org/tle/dailytle.txt


AO-07
1 07530U 74089B   26021.49526171 -.00000048  00000-0 -74566-5 0  9996
2 07530 101.9968  33.1808 0012359  52.0575 102.8176 12.53695196342133
UO-11
1 14781U 84021B   26021.40921779  .00002876  00000-0  30156-3 0  9997
2 14781  97.7871 348.8376 0006611 319.9347  40.1383 14.90305091235260
AO-27
1 22825U 93061C   26021.43726247  .00000285  00000-0  12546-3 0  9990
2 22825  98.7083  88.7874 0008700 164.2717 195.8737 14.30894150686017
FO-29
1 24278U 96046B   26021.40331127  .00000045  00000-0  78540-4 0  9997
2 24278  98.5437 250.2059 0350830 117.1790 246.5568 13.53265133453313
GO-32
1 25397U 98043D   26021.46555832  .00000166  00000-0  91868-4 0  9998
2 25397  98.9963  10.6033 0000332 315.9053  44.2098 14.24390320430449
ISS
1 25544U 98067A   26021.27150986  .00020903  00000-0  37939-3 0  9997
2 25544  51.6330 306.7706 0007779  41.9176 318.2407 15.49511068548986
NO-44
1 26931U 01043C   26020.92186967  .00000352  00000-0  16242-3 0  9995
2 26931  67.0501 265.1503 0007193 267.4439  92.5840 14.31881746269366
SO-50
1 27607U 02058C   26021.53812339  .00002817  00000-0  35128-3 0  9992
2 27607  64.5512 222.5745 0073767 289.2000  70.1133 14.82573986242719
CO-55
1 27844U 03031E   26021.49464565  .00000629  00000-0  29185-3 0  9991
2 27844  98.6768  31.8864 0008588 249.4697 110.5560 14.24219747170794
CO-57
1 27848U 03031J   26021.48054457  .00000521  00000-0  24839-3 0  9991
2 27848  98.6796  31.7026 0008417 269.8481  90.1733 14.23521677170507
RS-22
1 27939U 03042A   26021.52019538  .00003031  00000-0  47861-3 0  9999
2 27939  98.3379 201.7856 0011616  19.2243  65.4831 14.73100897193950
CO-58
1 28895U 05043F   26020.93573212  .00004050  00000-0  65131-3 0  9994
2 28895  98.2754 173.6893 0013449 315.7660  44.2471 14.72077109 80081
CO-65
1 32785U 08021C   26021.46931818  .00011040  00000-0  72784-3 0  9994
2 32785  97.8142   0.1483 0009739 156.1136 204.0545 15.07626624963079
CO-66
1 32791U 08021J   26021.44304439  .00028667  00000-0  10854-2 0  9994
2 32791  97.7480  13.0080 0005554  96.8676 263.3194 15.26871747964850
RS-30
1 32953U 08025A   26021.46695589  .00000050  00000-0  29099-3 0  9997
2 32953  82.5019  86.7146 0018268 270.8822  89.0165 12.43173731801465
SRMSAT
1 37841U 11058D   26021.27284447  .00000509  00000-0  13253-3 0  9998
2 37841  19.9706 228.6947 0011758  27.8607 127.6191 14.11527263737036
ZACUBE-1
1 39417U 13066B   26021.43456160  .00012289  00000-0  98352-3 0  9992
2 39417  97.8110 343.0547 0042556  21.2667 339.0313 14.99607344658721
Delfi-N3xt
1 39428U 13066N   26021.30425134  .00021761  00000-0  19913-2 0  9997
2 39428  97.8355 301.9933 0077734 336.2376  23.5261 14.92669485652692
GOMX-1
1 39430U 13066Q   26021.55254969  .00009674  00000-0  14627-2 0  9999
2 39430  97.6575 231.1938 0129543 187.7930 172.1266 14.68852474648389
LO-74
1 39440U 13066AA  26021.37037531  .00008979  00000-0  85263-3 0  9996
2 39440  97.8758 330.0134 0059737 152.5198 207.9201 14.92380021655087
AO-73
1 39444U 13066AE  26021.44454758  .00017680  00000-0  11694-2 0  9997
2 39444  97.8125 350.2437 0037982 345.8623  14.1537 15.06827080657547
DTUSAT-2
1 40030U 14033W   26020.91110948  .00022326  00000-0  12823-2 0  9994
2 40030  98.0791   9.6123 0009184  28.2126 331.9598 15.12498592630404
EO-80
1 40032U 14033Y   26021.44832619  .00016224  00000-0  93064-3 0  9998
2 40032  98.0676   9.5202 0006757 328.4401  31.6422 15.12636201630466
LILACSAT-2
1 40908U 15049K   26021.55761931  .00029035  00000-0  59165-3 0  9996
2 40908  97.4868  53.1954 0009420  69.9063 290.3199 15.46153328573051
Horyu-4
1 41340U 16012D   26021.34359119  .00085045  00000-0  12013-2 0  9999
2 41340  30.9939  37.1773 0004822 261.9116  98.0987 15.55167463547715
Lapan A3
1 41603U 16040E   26021.54479171  .00007156  00000-0  23416-3 0  9992
2 41603  97.1445  22.6660 0010643 170.6030 189.5414 15.31928563532352
CAS-2T
1 41847U 16066G   26021.46082892  .00003581  00000-0  51314-3 0  9997
2 41847  98.3971  98.8105 0342766 214.4391 143.4158 14.44267000483612
TechnoSat
1 42829U 17042E   26021.39195042  .00008985  00000-0  65579-3 0  9998
2 42829  97.4077 184.9048 0017340 233.4004 126.5627 15.03785232464634
AO-91
1 43017U 17073E   26020.56201523  .00023331  00000-0  10665-2 0  9999
2 43017  97.4923 250.8929 0160164 116.8913 244.8787 15.09743389443092
S-Net D
1 43186U 18014G   26021.45886809  .00011304  00000-0  60917-3 0  9990
2 43186  97.5483 287.2420 0008976 154.4135 205.7542 15.14928356436538
S-Net B
1 43187U 18014H   26021.46758045  .00011505  00000-0  62029-3 0  9991
2 43187  97.5487 287.2323 0009731 151.3220 208.8549 15.14902182436536
S-Net A
1 43188U 18014J   26021.26025679  .00013037  00000-0  70174-3 0  9992
2 43188  97.5499 287.2094 0009612 152.2604 207.9143 15.14929243436503
S-Net C
1 43189U 18014K   26021.47069653  .00011515  00000-0  62073-3 0  9994
2 43189  97.5514 287.4703 0011201 146.3348 213.8597 15.14895071435089
Ten-Koh
1 43677U 18084G   26021.48440684  .00005339  00000-0  41117-3 0  9994
2 43677  98.0723 207.7233 0007972 248.4364 111.6010 15.02088299394132
PO-101
1 43678U 18084H   26021.48800918  .00005630  00000-0  46104-3 0  9990
2 43678  98.1096 211.5786 0006892 280.7476  79.2970 14.99712877394221
QO-100
1 43700U 18090A   26021.29785826  .00000000  00000-0  00000+0 0  9999
2 43700   0.0118  69.3245 0001974 277.2895 267.1163  1.00270602 26200
MinXSS-2
1 43758U 18099A   26021.43745113  .00035484  00000-0  97799-3 0  9991
2 43758  97.4726  94.3952 0009871  77.2143 283.0204 15.36994707391514
AO-95
1 43770U 18099N   26021.42633630  .00019732  00000-0  83914-3 0  9996
2 43770  97.4607  82.4310 0010317 138.8938 221.3078 15.23012905390852
SNUSat 2
1 43782U 18099AA  26020.92857294  .00022179  00000-0  10554-2 0  9995
2 43782  97.4292  76.6732 0012387  91.5533 268.7120 15.19107856390659
SnugLite
1 43784U 18099AC  26020.41785977  .00024233  00000-0  10206-2 0  9996
2 43784  97.4101  76.3623 0004452  91.3632 268.8115 15.23337007390796
ITASat 1
1 43786U 18099AE  26020.69648065  .00022776  00000-0  11581-2 0  9991
2 43786  97.4262  75.2014 0014064 142.0780 218.1446 15.16767614390536
EAGLET 1
1 43790U 18099AJ  26020.63567766  .00013154  00000-0  77716-3 0  9991
2 43790  97.4458  74.1720 0012501 131.2566 228.9743 15.11553800390035
ESEO
1 43792U 18099AL  26020.61344389  .00003069  00000-0  22795-3 0  9996
2 43792  97.4174  64.2055 0013313 113.7986 246.4638 15.03668165389629
JO-97
1 43803U 18099AX  26020.59541260  .00044390  00000-0  16043-2 0  9993
2 43803  97.4357  83.3123 0007497  78.3933 281.8147 15.28293325391043
Suomi 100
1 43804U 18099AY  26021.38241940  .00023580  00000-0  95789-3 0  9997
2 43804  97.4416  82.5522 0011953  80.1353 280.1233 15.24506319391025
ISAT
1 43879U 18111D   26021.28274402  .00062451  00000-0  12976-2 0  9998
2 43879  97.5917 307.6688 0008944 104.0895 256.1348 15.45412719388345
UWE-4
1 43880U 18111E   26021.25537166  .00051586  00000-0  14315-2 0  9992
2 43880  97.5870 303.9432 0011234 122.2444 237.9890 15.36681052388144
Sparrow
1 43881U 18111F   26021.46197638  .00060070  00000-0  11351-2 0  9997
2 43881  97.6108 311.8692 0006833 123.4636 236.7268 15.48204940388507
Prox-1
1 44339U 19036A   26021.26538476  .00021153  00000-0  23046-2 0  9993
2 44339  23.9967  12.7395 0007305 138.0272 222.0787 14.86416325351553
Taurus 1
1 44530U 19059C   26021.53570072  .00013233  00000-0  22148-2 0  9991
2 44530  98.6247 177.6106 0008584  54.0091 306.1907 14.69922432337085
TO-108
1 44881U 19093C   26021.49199124  .00004185  00000-0  48170-3 0  9998
2 44881  97.7703  97.2271 0012999 203.9275 156.1338 14.86216850329626
FloripaSat 1
1 44885U 19093G   26021.49374113  .00026935  00000-0  20557-2 0  9990
2 44885  97.7955 114.8783 0011362 195.0181 165.0707 15.01909592330613
RS-44
1 44909U 19096E   26021.49584229  .00000021  00000-0  30809-4 0  9992
2 44909  82.5190  77.1905 0218438 127.2210 234.9045 12.79746644283586
SALSAT
1 46495U 20068K   26021.51238895  .00014415  00000-0  54330-3 0  9999
2 46495  97.8816  15.9596 0012296  95.1590 265.1051 15.27122310292954
CSS (TIANHE-1)
1 48274U 21035A   26021.34262028  .00034073  00000-0  39794-3 0  9996
2 48274  41.4670 135.9803 0010636 328.9638  31.0572 15.60837441270212
CUTE
1 49263U 21088D   26021.22284354  .00063223  00000-0  71527-3 0  9995
2 49263  97.4298 110.9147 0004928 119.3448 240.8302 15.62229095239454
TeikyoSat 4
1 49396U 21102B   26021.32914440  .00004345  00000-0  27921-3 0  9995
2 49396  97.3848  56.4370 0013867  80.1262 280.1531 15.08854567230577
Z-Sat
1 49399U 21102E   26021.56124679  .00016515  00000-0  83681-3 0  9998
2 49399  97.3529  61.3070 0018345  43.1841 317.0828 15.16896359231200
KOSEN 1
1 49402U 21102H   26020.63969030  .00021425  00000-0  87404-3 0  9991
2 49402  97.3413  65.7274 0014791  15.6610 344.5082 15.24346367231520
HO-113
1 50466U 21131B   26021.50265300  .00002743  00000-0  86365-3 0  9998
2 50466  98.5020 114.7199 0004461 165.3236 194.8083 14.41180618213980
SNUGLITE 2
1 52899U 22065F   26021.37762596  .00002372  00000-0  46178-3 0  9997
2 52899  98.1955 166.6973 0008478 121.2080 238.9954 14.63971618189511
